Weather History for Albion, NE

Change the Weather History Date:

Thursday, October 11, 2012

  Actual Average (KOFK) Record (KOFK)
Temperature  
Mean Temperature 46 °F 53 °F  
Max Temperature 56 °F 66 °F 89 °F (1956)
Min Temperature 38 °F 40 °F 18 °F (1987)
Degree Days  
Heating Degree Days 18 12  
Month to date heating degree days 117  
Since 1 July heating degree days 259  
Cooling Degree Days 0 0  
Month to date cooling degree days 8  
Year to date cooling degree days 914  
Moisture  
Dew Point 28 °F    
Average Humidity 47    
Maximum Humidity 67    
Minimum Humidity 31    
Precipitation  
Precipitation 0.00 in 0.07 in 1.57 in (1912)
Month to date precipitation 0.86  
Year to date precipitation 24.08  
Snow  
Snow 0.00 in 0.00 in - ()
Month to date snowfall 0.1  
Since 1 July snowfall 0.1  
Snow Depth -    
Sea Level Pressure  
Sea Level Pressure 30.13 in    
Wind  
Wind Speed 7 mph (NNE)    
Max Wind Speed 23 mph    
Max Gust Speed 32 mph    
Visibility 10 miles    
Events      
T = Trace of Precipitation, MM = Missing Value Source: NWS Daily Summary

Daily Weather History Graph

Daily Weather History Graph

Search for Another Location

Airport:

Trip Planner

Search our weather history database for the weather conditions in past years. The results will help you decide how hot, cold, wet, or windy it might be!

Date:

Astronomy

Oct. 11, 2012 Rise Set
Actual Time 7:40 AM CDT 6:56 PM CDT
Civil Twilight 7:12 AM CDT 7:24 PM CDT
Nautical Twilight 6:40 AM CDT 7:56 PM CDT
Astronomical Twilight 6:08 AM CDT 8:28 PM CDT
Moon 3:17 AM CDT (10/11) 4:36 PM CDT (10/11)
Length of Visible Light 12h 11m
Length of Day
11h 15m
Waning Crescent, 18% of the Moon is Illuminated
Oct 11
Waning Crescent
Oct 15
New
Oct 21
First Quarter
Oct 29
Full
Nov 6
Last Quarter

Hourly Weather History & Observations

Time (CDT) Temp. Windchill Dew Point Humidity Pressure Visibility Wind Dir Wind Speed Gust Speed Precip Events Conditions
12:15 AM 48.6 °F - 27.0 °F 43% 29.99 in 10.0 mi South 5.8 mph - N/A   Clear
12:35 AM 48.0 °F - 26.8 °F 44% 29.98 in 10.0 mi South 4.6 mph - N/A   Clear
12:55 AM 46.4 °F 45.2 °F 27.0 °F 47% 29.98 in 10.0 mi SSE 3.5 mph - N/A   Clear
1:15 AM 46.2 °F - 27.0 °F 47% 29.98 in 10.0 mi Calm Calm - N/A   Clear
1:35 AM 46.4 °F - 27.1 °F 47% 29.97 in 10.0 mi Calm Calm - N/A   Clear
1:55 AM 46.4 °F 45.2 °F 27.1 °F 47% 29.98 in 10.0 mi SSE 3.5 mph - N/A   Clear
2:15 AM 46.2 °F 43.3 °F 27.5 °F 48% 29.98 in 10.0 mi SSW 5.8 mph - N/A   Clear
2:55 AM 47.3 °F - 27.3 °F 46% 29.97 in 10.0 mi South 5.8 mph - N/A   Clear
3:15 AM 45.9 °F 44.6 °F 27.5 °F 49% 29.97 in 10.0 mi SE 3.5 mph - N/A   Clear
3:35 AM 44.6 °F 42.2 °F 27.9 °F 52% 29.96 in 10.0 mi SSE 4.6 mph - N/A   Clear
3:55 AM 44.6 °F 42.2 °F 28.0 °F 52% 29.96 in 10.0 mi SSE 4.6 mph - N/A   Clear
4:15 AM 45.5 °F 44.2 °F 27.9 °F 50% 29.96 in 10.0 mi SSE 3.5 mph - N/A   Clear
4:35 AM 45.7 °F 43.4 °F 27.9 °F 50% 29.96 in 10.0 mi SSE 4.6 mph - N/A   Clear
4:55 AM 45.3 °F 43.0 °F 28.2 °F 51% 29.96 in 10.0 mi SSE 4.6 mph - N/A   Clear
5:15 AM 46.4 °F 45.2 °F 28.0 °F 49% 29.96 in 10.0 mi SE 3.5 mph - N/A   Clear
5:35 AM 46.0 °F 42.5 °F 28.4 °F 50% 29.96 in 10.0 mi SSW 6.9 mph - N/A   Clear
5:55 AM 45.5 °F 44.2 °F 28.0 °F 51% 29.97 in 10.0 mi ESE 3.5 mph - N/A   Clear
6:15 AM 44.1 °F - 28.2 °F 54% 29.97 in 10.0 mi Calm Calm - N/A   Clear
6:35 AM 43.9 °F - 28.2 °F 54% 29.99 in 10.0 mi Calm Calm - N/A   Clear
6:55 AM 42.4 °F - 27.9 °F 56% 30.00 in 10.0 mi Calm Calm - N/A   Clear
7:35 AM 39.9 °F - 28.0 °F 63% 30.00 in 10.0 mi Calm Calm - N/A   Clear
7:55 AM 38.7 °F - 28.4 °F 67% 30.02 in 10.0 mi Calm Calm - N/A   Clear
8:15 AM 40.5 °F - 29.7 °F 65% 30.03 in 10.0 mi Calm Calm - N/A   Clear
8:35 AM 42.1 °F 40.2 °F 29.5 °F 61% 30.04 in 10.0 mi NW 3.5 mph - N/A   Clear
8:55 AM 44.2 °F 42.7 °F 30.0 °F 57% 30.05 in 10.0 mi NW 3.5 mph - N/A   Clear
9:15 AM 47.3 °F - 30.9 °F 53% 30.06 in 10.0 mi North 10.4 mph - N/A   Clear
9:35 AM 49.1 °F - 32.0 °F 52% 30.07 in 10.0 mi North 12.7 mph 17.3 mph N/A   Clear
9:55 AM 48.6 °F - 32.5 °F 54% 30.08 in 10.0 mi North 13.8 mph 18.4 mph N/A   Clear
10:15 AM 49.5 °F - 33.4 °F 54% 30.11 in 10.0 mi North 9.2 mph - N/A   Clear
10:35 AM 48.7 °F - 33.3 °F 55% 30.11 in 10.0 mi North 15.0 mph - N/A   Clear
10:55 AM 49.5 °F - 33.3 °F 54% 30.11 in 10.0 mi North 12.7 mph 21.9 mph N/A   Clear
11:15 AM 51.8 °F - 33.3 °F 49% 30.12 in 10.0 mi North 17.3 mph 23.0 mph N/A   Clear
11:35 AM 53.2 °F - 32.9 °F 46% 30.13 in 10.0 mi NNE 16.1 mph 21.9 mph N/A   Clear
11:55 AM 53.8 °F - 32.4 °F 44% 30.15 in 10.0 mi North 18.4 mph 24.2 mph N/A   Clear
12:15 PM 54.1 °F - 32.4 °F 44% 30.15 in 10.0 mi North 17.3 mph 25.3 mph N/A   Clear
12:55 PM 53.4 °F - 32.2 °F 44% 30.16 in 10.0 mi North 18.4 mph 29.9 mph N/A   Clear
1:15 PM 55.4 °F - 32.0 °F 41% 30.16 in 10.0 mi North 16.1 mph 27.6 mph N/A   Clear
1:35 PM 55.6 °F - 32.0 °F 41% 30.17 in 10.0 mi NNE 23.0 mph 32.2 mph N/A   Clear
1:55 PM 53.8 °F - 31.8 °F 43% 30.18 in 10.0 mi North 19.6 mph 27.6 mph N/A   Clear
2:15 PM 53.8 °F - 29.8 °F 40% 30.18 in 10.0 mi NNE 18.4 mph 28.8 mph N/A   Clear
2:35 PM 54.0 °F - 28.6 °F 38% 30.18 in 10.0 mi North 23.0 mph 28.8 mph N/A   Clear
2:55 PM 55.4 °F - 27.9 °F 35% 30.17 in 10.0 mi North 19.6 mph 28.8 mph N/A   Clear
3:15 PM 54.9 °F - 27.7 °F 35% 30.18 in 10.0 mi North 18.4 mph 26.5 mph N/A   Clear
3:55 PM 54.3 °F - 26.6 °F 34% 30.19 in 10.0 mi NNE 19.6 mph 28.8 mph N/A   Clear
4:15 PM 53.8 °F - 25.5 °F 34% 30.20 in 10.0 mi North 16.1 mph 25.3 mph N/A   Clear
4:35 PM 53.6 °F - 24.6 °F 33% 30.20 in 10.0 mi NNE 17.3 mph 24.2 mph N/A   Clear
4:55 PM 53.1 °F - 23.7 °F 32% 30.21 in 10.0 mi NNE 19.6 mph 26.5 mph N/A   Clear
5:15 PM 52.0 °F - 23.4 °F 33% 30.21 in 10.0 mi NE 16.1 mph 25.3 mph N/A   Clear
5:35 PM 52.7 °F - 23.2 °F 32% 30.21 in 10.0 mi NNE 15.0 mph 21.9 mph N/A   Clear
5:55 PM 52.0 °F - 22.3 °F 31% 30.22 in 10.0 mi NNE 15.0 mph 18.4 mph N/A   Clear
6:15 PM 51.1 °F - 22.5 °F 33% 30.25 in 10.0 mi NNE 13.8 mph 17.3 mph N/A   Clear
6:35 PM 49.3 °F - 22.1 °F 34% 30.25 in 10.0 mi NNE 11.5 mph - N/A   Clear
6:55 PM 47.8 °F - 22.6 °F 37% 30.26 in 10.0 mi NNE 5.8 mph - N/A   Clear
7:15 PM 46.4 °F 43.5 °F 23.0 °F 40% 30.27 in 10.0 mi NNE 5.8 mph - N/A   Clear
7:35 PM 45.0 °F 41.8 °F 23.2 °F 42% 30.28 in 10.0 mi NNE 5.8 mph - N/A   Clear
7:55 PM 44.6 °F 40.7 °F 23.9 °F 44% 30.29 in 10.0 mi NNE 6.9 mph - N/A   Clear
8:15 PM 43.9 °F 40.5 °F 24.3 °F 46% 30.30 in 10.0 mi NNE 5.8 mph - N/A   Clear
8:35 PM 42.3 °F 39.4 °F 24.3 °F 49% 30.31 in 10.0 mi NNE 4.6 mph - N/A   Clear
8:55 PM 41.9 °F 37.5 °F 24.4 °F 50% 30.32 in 10.0 mi NNE 6.9 mph - N/A   Clear
9:15 PM 41.9 °F 37.5 °F 25.2 °F 52% 30.33 in 10.0 mi NNE 6.9 mph - N/A   Clear
9:55 PM 40.3 °F 37.1 °F 24.8 °F 54% 30.34 in 10.0 mi NNE 4.6 mph - N/A   Clear
10:15 PM 39.6 °F 35.4 °F 24.8 °F 56% 30.34 in 10.0 mi NNE 5.8 mph - N/A   Clear
10:55 PM 39.9 °F 33.4 °F 25.2 °F 56% 30.35 in 10.0 mi NNE 10.4 mph - N/A   Clear
11:15 PM 39.4 °F 33.8 °F 25.2 °F 57% 30.36 in 10.0 mi NE 8.1 mph - N/A   Clear
11:35 PM 39.2 °F 32.5 °F 25.0 °F 57% 30.36 in 10.0 mi NE 10.4 mph - N/A   Clear
11:55 PM 38.5 °F 32.1 °F 24.8 °F 58% 30.36 in 10.0 mi NE 9.2 mph - N/A   Clear